Location: Spruce Knob
(38.6995°N, 79.5330°W)
Time: 05:03:29
(UTC-05:00)

A-11 Canister half - All Passes

Search period start: 19 January 2022 00:00
Search period end: 29 January 2022 00:00
Orbit: 1524 x 1684 km, 47.3° (Epoch: 18 January)

Date Brightness Start Highest point End Pass type
(mag) Time Alt. Az. Time Alt. Az. Time Alt. Az.
19 Jan - 11:09:22 10° S 11:17:18 33° SE 11:25:23 10° ENE daylight
19 Jan - 13:12:08 10° WSW 13:21:32 88° NNW 13:31:16 10° ENE daylight
19 Jan - 15:18:12 10° W 15:27:27 53° N 15:37:03 10° ENE daylight
19 Jan - 17:24:20 10° WNW 17:33:56 61° NNE 17:43:50 10° E daylight
19 Jan - 19:29:36 10° WNW 19:39:20 67° SW 19:49:18 10° SE visible
19 Jan - 21:36:44 10° W 21:43:09 19° SW 21:49:40 10° SSW visible
20 Jan - 10:47:57 10° S 10:55:42 31° SE 11:03:35 10° ENE daylight
20 Jan - 12:50:29 10° WSW 12:59:52 90° SE 13:09:33 10° ENE daylight
20 Jan - 14:56:28 10° W 15:05:42 53° N 15:15:16 10° ENE daylight
20 Jan - 17:02:38 10° WNW 17:12:11 60° NNE 17:22:03 10° E daylight
20 Jan - 19:07:54 10° WNW 19:17:39 70° SW 19:27:38 10° SE visible
20 Jan - 21:14:48 10° W 21:21:32 21° SW 21:28:23 10° S visible
21 Jan - 10:26:33 10° S 10:34:06 29° SE 10:41:47 10° ENE daylight
21 Jan - 12:28:50 10° SW 12:38:11 87° SSE 12:47:51 10° ENE daylight
21 Jan - 14:34:43 10° W 14:43:57 54° N 14:53:30 10° ENE daylight
21 Jan - 16:40:56 10° WNW 16:50:26 59° NNE 17:00:15 10° E daylight
21 Jan - 18:46:14 10° WNW 18:55:58 72° SW 19:05:59 10° SE visible
21 Jan - 20:52:54 10° W 20:59:55 22° SW 21:07:04 10° S visible
22 Jan - 10:05:10 10° S 10:12:31 27° SE 10:19:57 10° ENE daylight
22 Jan - 12:07:11 10° SW 12:16:31 84° SE 12:26:08 10° ENE daylight
22 Jan - 14:12:59 10° W 14:22:12 55° N 14:31:44 10° ENE daylight
22 Jan - 16:19:14 10° WNW 16:28:42 58° NNE 16:38:27 10° E daylight
22 Jan - 18:24:32 10° WNW 18:34:16 75° SW 18:44:18 10° SE visible
22 Jan - 20:31:01 10° WNW 20:38:18 24° SW 20:45:43 10° S visible
23 Jan - 09:43:48 10° S 09:50:55 25° SE 09:58:06 10° ENE daylight
23 Jan - 11:45:33 10° SW 11:54:51 81° SE 12:04:25 10° ENE daylight
23 Jan - 13:51:16 10° W 14:00:28 55° NNW 14:09:59 10° ENE daylight
23 Jan - 15:57:32 10° WNW 16:06:57 57° NNE 16:16:40 10° E daylight
23 Jan - 18:02:51 10° WNW 18:12:35 78° SW 18:22:37 10° SE visible
23 Jan - 20:09:09 10° WNW 20:16:40 25° SW 20:24:20 10° S visible
24 Jan - 09:22:27 10° S 09:29:20 24° SE 09:36:15 10° ENE daylight
24 Jan - 11:23:54 10° SW 11:33:11 78° SE 11:42:43 10° ENE daylight
24 Jan - 13:29:31 10° W 13:38:44 56° NNW 13:48:15 10° ENE daylight
24 Jan - 15:35:50 10° WNW 15:45:12 56° NNE 15:54:52 10° E daylight
24 Jan - 17:41:10 10° WNW 17:50:54 81° SW 18:00:56 10° SE visible
24 Jan - 19:47:19 10° WNW 19:55:03 27° SW 20:02:56 10° S visible
25 Jan - 09:01:08 10° S 09:07:44 22° SE 09:14:22 10° E daylight
25 Jan - 11:02:17 10° SW 11:11:31 75° SE 11:21:01 10° ENE daylight
25 Jan - 13:07:48 10° W 13:17:00 57° NNW 13:26:29 10° ENE daylight
25 Jan - 15:14:08 10° WNW 15:23:27 55° NNE 15:33:05 10° E daylight
25 Jan - 17:19:29 10° WNW 17:29:12 84° SW 17:39:13 10° SE daylight
25 Jan - 19:25:30 10° WNW 19:33:24 29° SW 19:41:31 10° S visible
26 Jan - 08:39:51 10° S 08:46:09 21° SE 08:52:28 10° E daylight
26 Jan - 10:40:40 10° SW 10:49:53 72° SE 10:59:17 10° ENE daylight
26 Jan - 12:46:04 10° W 12:55:16 58° NNW 13:04:45 10° ENE daylight
26 Jan - 14:52:26 10° WNW 15:01:42 54° N 15:11:18 10° E daylight
26 Jan - 16:57:49 10° WNW 17:07:31 87° SSW 17:17:31 10° SE daylight
26 Jan - 19:03:42 10° WNW 19:11:47 30° SW 19:20:03 10° S visible
27 Jan - 08:18:37 10° SSE 08:24:34 19° SE 08:30:32 10° E daylight
27 Jan - 10:19:03 10° SW 10:28:14 69° SE 10:37:35 10° ENE daylight
27 Jan - 12:24:20 10° W 12:33:32 59° NNW 12:43:01 10° ENE daylight
27 Jan - 14:30:44 10° WNW 14:39:57 53° N 14:49:29 10° E daylight
27 Jan - 16:36:09 10° WNW 16:45:49 89° SSW 16:55:49 10° ESE daylight
27 Jan - 18:41:55 10° WNW 18:50:09 32° SW 18:58:36 10° S visible
28 Jan - 07:57:24 10° SSE 08:02:59 18° SE 08:08:35 10° E daylight
28 Jan - 09:57:27 10° SW 10:06:35 66° SE 10:15:53 10° ENE daylight
28 Jan - 12:02:37 10° W 12:11:49 60° NNW 12:21:16 10° ENE daylight
28 Jan - 14:09:01 10° WNW 14:18:13 53° N 14:27:42 10° E daylight
28 Jan - 16:14:28 10° WNW 16:24:06 88° NNE 16:34:05 10° ESE daylight
28 Jan - 18:20:08 10° WNW 18:28:31 34° SW 18:37:06 10° S visible
